CW6344 Weather Reports


time (UTC)temp
C
wind
direction
speed
KPH
gust
KPH
rain 1hr
cm
rain 24hr
cm
rain mn
cm
humidity
%
barometer
mb
20260503184351 15 197 4.8 12.9 0.00 0.00 0.00 38 1015.7
20260503183351 16 300 4.8 14.5 0.00 0.00 0.00 39 1015.7
20260503182351 16 297 1.6 14.5 0.00 0.00 0.00 37 1015.6
20260503181351 15 35 6.4 9.7 0.00 0.00 0.00 38 1015.6
20260503180351 15 296 1.6 6.4 0.00 0.00 0.00 39 1015.8
20260503175351 15 339 9.7 14.5 0.00 0.00 0.00 38 1015.9
20260503174351 15 261 4.8 8.0 0.00 0.00 0.00 37 1015.8
20260503173351 14 306 3.2 9.7 0.00 0.00 0.00 40 1015.9
20260503172351 14 233 0.0 4.8 0.00 0.00 0.00 38 1016.1
20260503171351 14 316 3.2 4.8 0.00 0.00 0.00 42 1016.2
20260503170421 14 30 1.6 6.4 0.00 0.00 0.00 38 1016.3
20260503150421 11 321 8.0 11.3 0.00 0.00 0.00 44 1016.7
20260503131352 10 315 1.6 12.9 0.00 0.00 0.00 51 1016.9
20260503130351 9 46 4.8 8.0 0.00 0.00 0.00 52 1016.6
20260503110422 6 286 4.8 4.8 0.00 0.00 0.00 70 1015.7
20260503090352 7 281 0.0 4.8 0.00 0.00 0.00 66 1014.1
20260503081352 8 282 1.6 3.2 0.00 0.00 0.00 61 1013.8
20260503080352 8 283 1.6 1.6 0.00 0.00 0.00 62 1013.6
20260503072422 9 227 0.0 1.6 0.00 0.00 0.00 60 1013.2
20260503071352 9 290 3.2 8.0 0.00 0.00 0.00 60 1013.2
20260503070352 9 302 0.0 0.0 0.00 0.00 0.00 61 1013.0
20260503054352 10 132 0.0 1.6 0.00 0.00 0.00 58 1012.9
20260503053352 11 340 4.8 4.8 0.00 0.00 0.00 57 1013.0
20260503052422 11 197 1.6 4.8 0.00 0.00 0.00 57 1013.0
20260503051352 11 328 1.6 12.9 0.00 0.00 0.00 56 1012.9
20260503050352 11 290 0.0 3.2 0.00 0.00 0.00 57 1013.0
20260503045352 11 256 0.0 3.2 0.00 0.00 0.00 57 1012.9
20260503044452 11 332 3.2 4.8 0.00 0.00 0.00 56 1012.9
20260503043352 11 236 0.0 1.6 0.00 0.00 0.00 55 1012.8
20260503042352 11 286 0.0 4.8 0.00 0.00 0.00 55 1012.6
20260503041352 12 310 1.6 1.6 0.00 0.00 0.00 54 1012.8
20260503040352 12 360 0.0 3.2 0.00 0.00 0.00 55 1012.6
20260503035352 12 279 0.0 4.8 0.00 0.00 0.00 55 1012.6
20260503034352 12 175 1.6 3.2 0.00 0.00 0.00 57 1012.4
20260503033352 11 313 0.0 3.2 0.00 0.00 0.00 60 1012.3
20260503032352 11 20 0.0 0.0 0.00 0.00 0.00 60 1012.4
20260503030352 11 340 0.0 0.0 0.00 0.00 0.00 62 1012.5
20260503025352 11 344 0.0 3.2 0.00 0.00 0.00 62 1012.5
20260503024353 11 5 0.0 0.0 0.00 0.00 0.00 63 1012.4
20260503023352 11 5 0.0 0.0 0.00 0.00 0.00 65 1012.5
20260503022352 11 5 0.0 0.0 0.00 0.00 0.00 68 1012.5
20260503021352 10 5 0.0 0.0 0.00 0.00 0.00 70 1012.5
20260503020352 10 5 0.0 0.0 0.00 0.00 0.00 75 1012.5
20260503014352 11 5 0.0 0.0 0.00 0.00 0.00 74 1012.4
20260503012352 10 5 0.0 0.0 0.00 0.00 0.00 75 1012.4
20260503011352 10 5 0.0 0.0 0.00 0.00 0.00 74 1012.4
20260503010352 11 5 0.0 0.0 0.00 0.00 0.00 73 1012.2
20260503005352 11 5 0.0 0.0 0.00 0.00 0.00 73 1012.2
20260503004352 11 5 0.0 0.0 0.00 0.00 0.00 72 1012.0
20260503002352 11 5 0.0 0.0 0.00 0.00 0.00 70 1011.5
20260503001352 11 5 0.0 0.0 0.00 0.00 0.00 70 1011.5
20260503000352 11 5 0.0 0.0 0.00 0.00 0.00 69 1011.5
20260502235352 12 5 0.0 0.0 0.00 0.00 0.00 67 1011.6
20260502234352 12 5 0.0 0.0 0.00 0.00 0.00 66 1011.5
20260502233352 12 5 0.0 0.0 0.00 0.00 0.00 62 1011.2
20260502232352 12 5 0.0 0.0 0.00 0.00 0.00 60 1011.2
20260502231352 13 5 0.0 0.0 0.00 0.00 0.00 56 1011.3
20260502230352 13 5 0.0 0.0 0.00 0.00 0.00 58 1011.2
20260502224352 13 5 0.0 0.0 0.00 0.00 0.00 58 1011.2
20260502222352 13 5 0.0 0.0 0.00 0.00 0.00 57 1011.4
20260502221352 14 5 0.0 0.0 0.00 0.00 0.00 54 1011.4
20260502220353 14 5 0.0 1.6 0.00 0.00 0.00 53 1011.4
20260502215352 14 5 0.0 1.6 0.00 0.00 0.00 53 1011.4
20260502214352 13 294 0.0 1.6 0.00 0.00 0.00 54 1011.4
20260502213353 13 264 0.0 1.6 0.00 0.00 0.00 54 1011.5
20260502212352 13 132 0.0 0.0 0.00 0.00 0.00 55 1011.4
20260502211352 13 111 0.0 0.0 0.00 0.00 0.00 56 1011.3
20260502210352 13 88 0.0 1.6 0.00 0.00 0.00 57 1011.1
20260502205352 14 88 0.0 0.0 0.00 0.00 0.00 55 1011.3
20260502204353 15 288 0.0 0.0 0.00 0.00 0.00 56 1011.2
20260502202353 14 339 1.6 1.6 0.00 0.00 0.00 54 1011.2
20260502201353 15 321 0.0 1.6 0.00 0.00 0.00 55 1011.2
20260502200353 15 279 0.0 3.2 0.00 0.00 0.00 59 1011.1
20260502195353 15 286 0.0 1.6 0.00 0.00 0.00 56 1011.2
20260502194353 14 45 1.6 1.6 0.00 0.00 0.00 55 1011.3
20260502193353 14 63 1.6 1.6 0.00 0.00 0.00 54 1011.4
20260502192353 14 55 0.0 0.0 0.00 0.00 0.00 56 1011.6
20260502191353 15 331 0.0 3.2 0.00 0.00 0.00 55 1011.5
20260502190423 14 36 1.6 1.6 0.00 0.00 0.00 56 1011.8
20260502185353 14 264 1.6 1.6 0.00 0.00 0.00 54 1012.0